Total_Precipitation_Accumulation
2.86 2.94 2.72 2.65 2.55 2.68 2.83 2.81 2.57 2.66 2.78 2.70 2.44 2.26 2.16 1.92 1.79 1.72 1.83 2.12 2.11 2.10 2.34 2.35 2.28 2.17 1.93 1.67 1.54 1.46 1.39 1.28 1.13 0.92 0.84 0.75 0.65 0.54 0.41 0.35 0.32 0.30 0.31
2.68 2.60 2.69 2.77 2.60 2.59 2.56 2.56 2.59 2.80 2.92 2.94 2.63 2.39 2.28 2.10 1.95 1.92 1.92 2.20 2.26 2.11 2.26 2.61 2.77 2.70 2.55 2.24 1.99 1.87 1.77 1.62 1.35 1.03 0.92 0.86 0.74 0.65 0.57 0.53 0.48 0.40 0.35
2.65 2.66 2.66 2.55 2.49 2.49 2.58 2.62 2.68 2.81 2.69 2.73 2.68 2.51 2.44 2.29 2.17 2.04 2.00 2.05 1.89 2.05 2.27 2.52 2.76 2.82 2.87 2.74 2.61 2.44 2.19 1.88 1.55 1.19 0.95 0.89 0.81 0.68 0.63 0.64 0.63 0.55 0.46
2.41 2.53 2.37 2.33 2.35 2.19 2.24 2.42 2.40 2.45 2.53 2.64 2.63 2.40 2.37 2.42 2.25 2.16 2.03 1.95 2.05 1.80 2.13 2.46 2.63 2.60 2.77 3.05 3.28 3.26 2.77 2.16 1.71 1.37 1.13 1.00 0.93 0.77 0.66 0.62 0.63 0.62 0.51
1.95 2.06 2.03 2.09 2.04 2.00 2.06 1.89 2.21 2.32 2.42 2.48 2.28 2.24 2.13 2.31 2.29 2.08 2.04 1.83 2.00 1.98 2.02 2.13 2.37 2.34 2.59 3.13 3.68 3.82 3.51 2.83 2.17 1.81 1.61 1.45 1.36 1.17 0.90 0.76 0.68 0.64 0.56
1.84 1.83 1.81 1.88 1.79 1.88 2.04 2.11 2.27 2.23 2.14 2.17 1.88 1.96 1.99 1.80 1.88 1.91 1.82 1.81 1.82 1.57 1.70 1.96 2.28 1.98 2.32 2.82 3.26 3.57 3.74 3.54 2.98 2.49 2.22 2.14 2.06 1.72 1.24 1.01 0.87 0.79 0.68
1.77 1.87 1.68 1.82 1.70 1.73 1.80 1.84 1.95 1.94 1.88 1.95 2.11 2.07 1.78 1.56 1.54 1.51 1.59 1.78 1.68 1.63 1.78 2.10 2.25 2.19 1.94 2.01 2.24 2.73 3.42 3.73 3.58 3.10 2.71 2.46 2.39 2.10 1.56 1.25 1.06 0.97 0.92
1.54 1.50 1.67 1.66 1.61 1.75 1.80 1.77 1.83 1.80 1.68 1.73 1.95 2.17 1.89 1.71 1.42 1.09 1.23 1.25 1.34 1.60 1.72 1.77 1.90 2.15 2.01 2.14 1.78 1.96 2.73 3.36 3.81 3.73 3.30 2.81 2.49 2.21 1.86 1.57 1.29 1.13 1.09
1.30 1.37 1.43 1.48 1.60 1.58 1.69 1.75 1.65 1.69 1.72 1.70 1.74 2.03 1.99 1.82 1.56 1.15 1.01 1.08 1.23 1.42 1.46 1.66 1.71 1.81 1.79 2.13 2.28 2.05 2.10 2.41 3.27 3.93 3.93 3.33 2.66 2.18 1.95 1.83 1.71 1.51 1.33
1.22 1.20 1.25 1.33 1.45 1.41 1.59 1.46 1.51 1.70 1.76 1.63 1.58 1.52 1.59 1.64 1.73 1.50 1.19 1.04 1.14 1.23 1.30 1.34 1.52 1.77 1.91 2.05 2.20 2.05 1.74 1.77 2.40 3.20 3.71 3.65 3.12 2.54 2.20 2.13 2.31 2.26 1.89
1.38 1.23 1.29 1.35 1.39 1.33 1.36 1.37 1.64 1.64 1.58 1.53 1.51 1.52 1.52 1.51 1.49 1.53 1.40 1.23 1.16 1.00 1.03 1.14 1.41 1.62 1.73 1.94 2.23 2.01 1.74 1.59 1.73 2.20 2.74 3.10 3.16 2.84 2.51 2.39 2.69 2.91 2.70
1.44 1.32 1.32 1.35 1.29 1.26 1.25 1.26 1.48 1.50 1.54 1.58 1.52 1.42 1.49 1.46 1.43 1.55 1.38 1.20 1.09 0.81 0.78 0.90 1.11 1.28 1.42 1.66 1.80 1.83 1.79 1.77 1.73 1.79 1.91 2.19 2.51 2.61 2.58 2.68 2.98 3.22 3.32
1.17 1.21 1.24 1.28 1.15 1.17 1.27 1.42 1.45 1.43 1.49 1.51 1.42 1.34 1.32 1.20 1.28 1.37 1.28 1.09 1.07 0.88 0.94 0.87 0.92 1.15 1.31 1.63 1.76 1.79 1.64 1.69 1.53 1.45 1.47 1.55 1.70 1.97 2.27 2.49 2.82 3.14 3.46
1.14 1.18 1.20 1.16 1.14 1.19 1.22 1.47 1.37 1.35 1.39 1.35 1.24 1.44 1.38 1.15 1.27 1.32 1.37 1.51 1.38 1.22 1.21 1.01 1.01 1.28 1.60 1.71 1.90 1.89 1.52 1.51 1.35 1.24 1.17 1.21 1.30 1.45 1.59 1.79 2.05 2.27 2.51
1.24 1.29 1.27 1.23 1.24 1.34 1.47 1.59 1.46 1.45 1.50 1.33 1.32 1.51 1.45 1.31 1.33 1.29 1.42 1.63 1.75 1.53 1.37 1.33 1.32 1.35 1.54 1.63 1.78 1.68 1.51 1.57 1.42 1.26 1.15 1.11 1.15 1.23 1.29 1.33 1.42 1.52 1.64
1.31 1.36 1.34 1.29 1.35 1.41 1.53 1.60 1.48 1.54 1.53 1.43 1.47 1.60 1.59 1.48 1.48 1.43 1.47 1.62 1.84 1.81 1.58 1.36 1.40 1.37 1.43 1.33 1.51 1.40 1.43 1.56 1.41 1.30 1.25 1.20 1.15 1.16 1.17 1.23 1.26 1.24 1.24
1.37 1.35 1.35 1.35 1.34 1.40 1.47 1.54 1.47 1.51 1.47 1.47 1.48 1.53 1.53 1.64 1.67 1.65 1.75 1.78 1.86 1.99 1.80 1.47 1.51 1.62 1.61 1.44 1.41 1.37 1.35 1.35 1.31 1.33 1.27 1.23 1.17 1.11 1.05 1.00 1.05 1.07 1.06
1.31 1.35 1.40 1.35 1.25 1.32 1.46 1.48 1.41 1.47 1.51 1.47 1.54 1.70 1.63 1.67 1.74 1.82 1.96 1.88 1.92 2.17 2.13 1.85 1.80 1.87 1.74 1.64 1.60 1.50 1.31 1.24 1.23 1.36 1.27 1.19 1.10 1.03 0.99 0.94 0.92 0.91 0.91
1.39 1.36 1.32 1.25 1.23 1.28 1.35 1.37 1.47 1.58 1.63 1.66 1.74 1.82 1.85 2.00 1.91 1.95 2.00 1.97 2.02 2.24 2.43 2.24 2.07 2.15 2.08 1.85 1.77 1.56 1.39 1.39 1.23 1.28 1.30 1.20 1.13 1.09 1.02 1.02 1.01 0.95 0.88
1.48 1.48 1.47 1.49 1.50 1.45 1.44 1.49 1.60 1.68 1.71 1.77 1.91 1.93 1.94 2.00 2.05 2.16 2.17 2.25 2.39 2.56 2.70 2.58 2.45 2.52 2.52 2.33 2.10 1.75 1.61 1.51 1.40 1.30 1.38 1.32 1.27 1.21 1.12 1.04 1.00 0.99 0.96
1.72 1.83 1.81 1.79 1.83 1.77 1.60 1.70 1.77 1.76 1.86 1.80 1.87 1.91 1.88 1.97 2.02 2.12 2.09 2.26 2.55 2.74 2.87 2.88 2.83 2.98 2.91 2.73 2.39 2.02 1.92 1.81 1.68 1.48 1.42 1.33 1.30 1.22 1.18 1.14 1.09 1.05 1.02
1.97 2.03 1.96 1.95 1.94 1.72 1.84 1.89 1.87 1.93 1.98 1.93 1.93 1.95 1.93 1.90 1.83 1.86 1.93 2.04 2.21 2.41 2.63 2.83 2.90 2.97 3.01 2.88 2.66 2.41 2.08 1.84 1.68 1.55 1.58 1.48 1.37 1.29 1.16 1.08 1.18 1.13 1.07
1.91 1.96 1.98 1.99 1.89 1.84 1.86 1.73 1.74 1.74 1.83 1.89 1.93 1.93 1.76 1.64 1.67 1.60 1.73 1.78 1.77 1.84 1.97 2.23 2.44 2.48 2.69 2.81 2.71 2.36 2.06 1.81 1.62 1.58 1.62 1.53 1.43 1.34 1.23 1.19 1.27 1.14 1.08
2.16 2.17 2.10 2.06 2.03 1.91 1.82 1.68 1.72 1.59 1.63 1.68 1.71 1.74 1.74 1.64 1.62 1.69 1.69 1.59 1.45 1.44 1.54 1.57 1.68 1.91 2.17 2.49 2.59 2.46 2.38 2.10 1.80 1.58 1.54 1.50 1.36 1.27 1.19 1.16 1.27 1.17 1.08
2.33 2.30 2.26 2.28 2.30 2.28 2.19 1.89 1.77 1.64 1.69 1.69 1.68 1.68 1.68 1.54 1.62 1.57 1.52 1.53 1.45 1.38 1.40 1.44 1.49 1.68 1.95 2.18 2.40 2.41 2.30 2.18 1.92 1.62 1.48 1.44 1.33 1.30 1.26 1.17 1.15 1.18 1.09
2.23 2.24 2.18 2.24 2.21 2.23 2.29 1.97 1.74 1.56 1.61 1.65 1.73 1.74 1.76 1.60 1.66 1.60 1.57 1.59 1.50 1.42 1.41 1.39 1.42 1.48 1.55 1.82 2.11 2.09 2.04 2.06 1.89 1.66 1.40 1.40 1.33 1.33 1.34 1.12 0.95 0.93 0.94